Location: Chin
(49.7667°N, 112.4500°W)
Time: 10:59:52
(UTC+00:00)

N. Korean satellite - Pass Details

Date: 09 December 2021
Orbit: 447 x 490 km, 97.3° (Epoch: 27 January)

Event Time Altitude Azimuth Distance (km) Brightness Sun altitude
Rises 00:31:10 0° 193° (SSW) 2,508 10.8 -9.5°
Reaches altitude 10° 00:33:28 10° 207° (SSW) 1,628 10.0 -9.8°
Maximum altitude 00:36:26 26° 265° (W) 965 9.0 -10.3°
Drops below altitude 10° 00:39:23 10° 323° (NW) 1,618 9.4 -10.7°
Sets 00:41:40 0° 337° (NNW) 2,490 10.2 -11.1°
